Regional Weather Roundup
Issued by NWS Sioux Falls, SD

Home | Current Version | Previous Version | Graphics & Text | Print | Product List | Glossary Off
Versions: 1 2 3 4 5 6 7 8 9 10 11 12 13 14 15 16 17 18 19 20 21 22 23 24 25 26 27 28 29 30 31 32 33 34 35 36 37 38 39 40 41 42 43 44 45 46 47 48 49 50

000
ASUS43 KFSD 030002
RWRFSD

WEATHER ROUNDUP FOR SE SOUTH DAKOTA/SW MINNESOTA/NW IOWA
NATIONAL WEATHER SERVICE SIOUX FALLS SD
600 PM CST FRI DEC 02 2016

NOTE: "FAIR" INDICATES FEW OR NO CLOUDS BELOW 12,000 FEET WITH NO
SIGNIFICANT WEATHER AND OR OBSTRUCTIONS TO VISIBILITY.


SDZ038>040-050-052>070-030100-
SOUTHEAST SOUTH DAKOTA

CITY           SKY/WX    TMP DP  RH WIND       PRES   REMARKS
CHAMBERLAIN    CLOUDY    32  30  94 SE3       30.28R
6HR MIN TEMP:  32; 6HR MAX TEMP:  34;

HURON          CLOUDY    29  26  89 N3        30.30S
6HR MIN TEMP:  29; 6HR MAX TEMP:  32; 6HR PCP: TRACE;

MADISON        CLOUDY    27  25  93 NW6       30.28R WCI  20
MITCHELL       CLOUDY    31  27  85 N3        30.31S
6HR MIN TEMP:  31; 6HR MAX TEMP:  33;

SIOUX FALLS    CLOUDY    31  26  82 N7        30.29S WCI  24
6HR MIN TEMP:  31; 6HR MAX TEMP:  34;

WINNER         FAIR      32  26  78 E5        30.25S WCI  27
YANKTON        CLOUDY    34  27  75 NW3       30.31R
$$

MNZ071-072-080-081-089-090-097-098-030100-
SOUTHWEST MINNESOTA

CITY           SKY/WX    TMP DP  RH WIND       PRES   REMARKS
FAIRMONT       CLOUDY    30  24  78 N6        30.29F WCI  24
JACKSON        CLOUDY    30  23  74 NW3       30.28S
LUVERNE        CLOUDY    30  23  74 NW10      30.30R WCI  21
MARSHALL       CLOUDY    29  23  78 N6        30.30S WCI  23
6HR MIN TEMP:  29; 6HR MAX TEMP:  30; 6HR PCP: TRACE;

MONTEVIDEO     CLOUDY    28  27  93 CALM      30.32S
PIPESTONE      CLOUDY    28  21  74 NW7       30.27S WCI  21
REDWOOD FALLS  CLOUDY    29  20  69 NW3       30.30R
TRACY          CLOUDY    30  26  84 NW6       30.29S WCI  24
WINDOM         CLOUDY    30  25  80 CALM      30.28S
WORTHINGTON    CLOUDY    30  24  78 NW14      30.29R WCI  19
$$

IAZ001>003-012>014-020>022-031-032-NEZ013-014-SDZ071-030100-
NORTHWEST IOWA

CITY           SKY/WX    TMP DP  RH WIND       PRES   REMARKS
CHEROKEE       CLOUDY    33  30  86 CALM      30.31R
DENISON        CLOUDY    36  32  87 N5        30.29R
ESTHERVILLE    CLOUDY    30  25  81 N5        30.28S WCI  25
LE MARS        CLOUDY    34  32  93 NW5       30.32S WCI  30
ORANGE CITY    CLOUDY    32  28  86 CALM      30.30R
SHELDON        CLOUDY    32  28  86 NW9       30.28R WCI  24
SIOUX CITY     CLOUDY    36  31  82 NW7       30.33R
6HR MIN TEMP:  36; 6HR MAX TEMP:  40;

SPENCER        CLOUDY    32  26  78 NW8       30.29R WCI  25
6HR MIN TEMP:  32; 6HR MAX TEMP:  34;

STORM LAKE     CLOUDY    32  30  93 NW5       30.30R WCI  27
$$

ABBREVIATIONS USED IN REMARKS
   TC - TEMPERATURE IN CELSIUS
  WCI - WIND CHILL INDEX
   HX - HEAT INDEX
  VSB - VISIBILITY




USA.gov is the U.S. government's official web portal to all federal, state and local government web resources and services.